Time,TemperatureF,DewpointF,PressureIn,WindDirection,WindDirectionDegrees,WindSpeedMPH,WindSpeedGustMPH,Humidity,HourlyPrecipIn,Conditions,Clouds,dailyrainin,SoftwareType,DateUTC
2013-08-17 00:00:00,57.3,54.1,28.31,SW,227,0.0,0.0,89,0.00,,,0.00,Wunderground v.1.15,2013-08-17 04:00:00,
2013-08-17 00:02:00,57.2,54.0,28.31,SW,227,0.0,-999.0,89,-99.99,,,0.00,weatherlink.com 1.10,2013-08-17 04:02:00,
2013-08-17 00:17:00,56.9,54.0,28.31,SW,226,0.0,-999.0,89,-99.99,,,0.00,weatherlink.com 1.10,2013-08-17 04:17:00,
2013-08-17 00:30:00,56.6,53.4,28.31,SW,227,0.0,0.0,89,0.00,,,0.00,Wunderground v.1.15,2013-08-17 04:30:00,
2013-08-17 00:33:00,56.6,54.0,28.31,SW,226,0.0,-999.0,89,-99.99,,,0.00,weatherlink.com 1.10,2013-08-17 04:33:00,
2013-08-17 00:48:00,56.0,53.0,28.32,SW,227,0.0,-999.0,89,-99.99,,,0.00,weatherlink.com 1.10,2013-08-17 04:48:00,
2013-08-17 01:00:00,55.6,52.4,28.32,SSW,200,0.0,0.0,89,0.00,,,0.00,Wunderground v.1.15,2013-08-17 05:00:00,
2013-08-17 01:18:00,55.1,52.0,28.32,SSW,200,0.0,-999.0,89,-99.99,,,0.00,weatherlink.com 1.10,2013-08-17 05:18:00,
2013-08-17 01:30:00,54.8,51.6,28.33,SSW,200,0.0,0.0,89,0.00,,,0.00,Wunderground v.1.15,2013-08-17 05:30:00,
2013-08-17 01:48:00,54.6,52.0,28.33,SSW,199,0.0,-999.0,89,-99.99,,,0.00,weatherlink.com 1.10,2013-08-17 05:48:00,
2013-08-17 02:00:00,54.4,51.2,28.33,SSW,200,0.0,0.0,89,0.00,,,0.00,Wunderground v.1.15,2013-08-17 06:00:00,
2013-08-17 02:02:00,54.4,51.0,28.33,SSW,200,0.0,-999.0,89,-99.99,,,0.00,weatherlink.com 1.10,2013-08-17 06:02:00,
2013-08-17 02:17:00,54.2,51.0,28.33,SSW,200,0.0,-999.0,89,-99.99,,,0.00,weatherlink.com 1.10,2013-08-17 06:17:00,
2013-08-17 02:30:00,54.1,50.9,28.33,SSW,199,0.0,0.0,89,0.00,,,0.00,Wunderground v.1.15,2013-08-17 06:30:00,
2013-08-17 02:48:00,54.0,51.0,28.33,SSW,200,0.0,-999.0,89,-99.99,,,0.00,weatherlink.com 1.10,2013-08-17 06:48:00,
2013-08-17 03:00:00,54.1,50.9,28.33,SSW,199,0.0,0.0,89,0.00,,,0.00,Wunderground v.1.15,2013-08-17 07:00:00,
2013-08-17 03:18:00,53.7,51.0,28.34,SSW,200,0.0,-999.0,89,-99.99,,,0.00,weatherlink.com 1.10,2013-08-17 07:18:00,
2013-08-17 03:30:00,53.3,50.1,28.34,SSW,200,0.0,0.0,89,0.00,,,0.00,Wunderground v.1.15,2013-08-17 07:30:00,
2013-08-17 03:48:00,53.1,50.0,28.34,SSW,199,0.0,-999.0,89,-99.99,,,0.00,weatherlink.com 1.10,2013-08-17 07:48:00,
2013-08-17 04:00:00,52.9,49.7,28.34,SSW,199,0.0,0.0,89,0.00,,,0.00,Wunderground v.1.15,2013-08-17 08:00:00,
2013-08-17 04:18:00,52.6,50.0,28.34,SSW,200,0.0,-999.0,89,-99.99,,,0.00,weatherlink.com 1.10,2013-08-17 08:18:00,
2013-08-17 04:30:00,52.3,49.2,28.34,SSW,199,0.0,0.0,89,0.00,,,0.00,Wunderground v.1.15,2013-08-17 08:30:00,
2013-08-17 04:48:00,52.2,49.0,28.35,SSW,200,0.0,-999.0,89,-99.99,,,0.00,weatherlink.com 1.10,2013-08-17 08:48:00,
2013-08-17 05:00:00,52.2,49.1,28.35,SSW,199,0.0,0.0,89,0.00,,,0.00,Wunderground v.1.15,2013-08-17 09:00:00,
2013-08-17 05:19:00,51.9,49.0,28.35,SSW,200,0.0,-999.0,89,-99.99,,,0.00,weatherlink.com 1.10,2013-08-17 09:19:00,
2013-08-17 05:30:00,52.0,48.9,28.35,SSW,200,0.0,0.0,89,0.00,,,0.00,Wunderground v.1.15,2013-08-17 09:30:00,
2013-08-17 05:49:00,51.9,49.0,28.35,SSW,200,0.0,-999.0,89,-99.99,,,0.00,weatherlink.com 1.10,2013-08-17 09:49:00,
2013-08-17 06:00:00,51.9,48.8,28.36,SSW,200,0.0,0.0,89,0.00,,,0.01,Wunderground v.1.15,2013-08-17 10:00:00,
2013-08-17 06:18:00,51.8,49.0,28.36,SSW,200,0.0,-999.0,89,-99.99,,,0.01,weatherlink.com 1.10,2013-08-17 10:18:00,
2013-08-17 06:30:00,51.8,48.7,28.37,SSW,200,0.0,0.0,89,0.00,,,0.01,Wunderground v.1.15,2013-08-17 10:30:00,
2013-08-17 06:49:00,52.1,49.0,28.37,SSW,200,0.0,-999.0,89,-99.99,,,0.01,weatherlink.com 1.10,2013-08-17 10:49:00,
2013-08-17 07:00:00,52.5,49.4,28.37,SSW,200,0.0,0.0,89,0.00,,,0.01,Wunderground v.1.15,2013-08-17 11:00:00,
2013-08-17 07:19:00,53.6,50.0,28.38,South,183,0.0,-999.0,88,-99.99,,,0.01,weatherlink.com 1.10,2013-08-17 11:19:00,
2013-08-17 07:30:00,54.7,51.5,28.38,South,182,0.0,0.0,89,0.00,,,0.01,Wunderground v.1.15,2013-08-17 11:30:00,
2013-08-17 07:49:00,56.4,53.0,28.38,South,180,0.0,-999.0,88,-99.99,,,0.01,weatherlink.com 1.10,2013-08-17 11:49:00,
2013-08-17 08:00:00,57.5,54.0,28.38,South,179,0.0,0.0,88,0.00,,,0.01,Wunderground v.1.15,2013-08-17 12:00:00,
2013-08-17 08:18:00,59.6,56.0,28.37,South,180,0.0,-999.0,88,-99.99,,,0.01,weatherlink.com 1.10,2013-08-17 12:18:00,
2013-08-17 08:30:00,60.6,57.0,28.38,South,179,0.0,0.0,88,0.00,,,0.01,Wunderground v.1.15,2013-08-17 12:30:00,
2013-08-17 08:49:00,62.7,59.0,28.37,South,178,0.0,-999.0,88,-99.99,,,0.01,weatherlink.com 1.10,2013-08-17 12:49:00,
2013-08-17 09:00:00,63.8,59.9,28.37,South,178,0.0,0.0,87,0.00,,,0.01,Wunderground v.1.15,2013-08-17 13:00:00,
2013-08-17 09:19:00,66.1,61.0,28.38,South,178,0.0,-999.0,82,-99.99,,,0.01,weatherlink.com 1.10,2013-08-17 13:19:00,
2013-08-17 09:30:00,67.4,59.6,28.38,SSE,167,0.0,0.0,76,0.00,,,0.01,Wunderground v.1.15,2013-08-17 13:30:00,
2013-08-17 09:49:00,69.4,60.0,28.38,SSE,148,0.0,-999.0,72,-99.99,,,0.01,weatherlink.com 1.10,2013-08-17 13:49:00,
2013-08-17 10:00:00,70.3,60.1,28.39,SSE,157,0.0,0.0,70,0.00,,,0.01,Wunderground v.1.15,2013-08-17 14:00:00,
2013-08-17 10:19:00,72.3,61.0,28.39,ESE,122,0.0,-999.0,67,-99.99,,,0.01,weatherlink.com 1.10,2013-08-17 14:19:00,
2013-08-17 10:30:00,73.0,58.8,28.39,SE,132,1.0,1.0,61,0.00,,,0.01,Wunderground v.1.15,2013-08-17 14:30:00,
2013-08-17 10:35:00,73.3,59.0,28.39,SE,133,0.0,-999.0,61,-99.99,,,0.01,weatherlink.com 1.10,2013-08-17 14:35:00,
2013-08-17 10:50:00,73.9,60.0,28.39,SSE,163,0.0,-999.0,63,-99.99,,,0.01,weatherlink.com 1.10,2013-08-17 14:50:00,
2013-08-17 11:00:00,74.0,59.7,28.39,SSW,192,1.0,5.0,61,0.00,,,0.01,Wunderground v.1.15,2013-08-17 15:00:00,
2013-08-17 11:05:00,73.9,58.0,28.39,SSE,153,0.0,-999.0,57,-99.99,,,0.01,weatherlink.com 1.10,2013-08-17 15:05:00,
2013-08-17 11:20:00,74.3,59.0,28.39,ESE,121,4.0,-999.0,59,-99.99,,,0.01,weatherlink.com 1.10,2013-08-17 15:20:00,
2013-08-17 11:30:00,74.8,58.1,28.40,SE,138,0.0,2.0,56,0.00,,,0.01,Wunderground v.1.15,2013-08-17 15:30:00,
2013-08-17 11:35:00,75.0,57.0,28.40,SE,125,0.0,-999.0,54,-99.99,,,0.01,weatherlink.com 1.10,2013-08-17 15:35:00,
2013-08-17 11:50:00,75.9,57.0,28.39,ESE,113,0.0,-999.0,52,-99.99,,,0.01,weatherlink.com 1.10,2013-08-17 15:50:00,
2013-08-17 12:00:00,76.0,57.1,28.39,South,171,0.0,9.0,52,0.00,,,0.01,Wunderground v.1.15,2013-08-17 16:00:00,
2013-08-17 12:19:00,76.4,56.0,28.39,East,92,0.0,-999.0,50,-99.99,,,0.01,weatherlink.com 1.10,2013-08-17 16:19:00,
2013-08-17 12:30:00,76.9,54.5,28.39,East,101,0.0,9.0,46,0.00,,,0.01,Wunderground v.1.15,2013-08-17 16:30:00,
2013-08-17 12:35:00,77.1,58.0,28.38,ESE,121,1.0,-999.0,51,-99.99,,,0.01,weatherlink.com 1.10,2013-08-17 16:35:00,
2013-08-17 12:50:00,77.5,57.0,28.38,SSE,156,0.0,-999.0,49,-99.99,,,0.01,weatherlink.com 1.10,2013-08-17 16:50:00,
2013-08-17 13:00:00,77.9,58.3,28.38,SSE,162,0.0,9.0,51,0.00,,,0.01,Wunderground v.1.15,2013-08-17 17:00:00,
2013-08-17 13:05:00,78.1,57.0,28.38,SSE,165,1.0,-999.0,49,-99.99,,,0.01,weatherlink.com 1.10,2013-08-17 17:05:00,
2013-08-17 13:20:00,77.6,55.0,28.38,ESE,118,0.0,-999.0,46,-99.99,,,0.01,weatherlink.com 1.10,2013-08-17 17:20:00,
2013-08-17 13:30:00,77.7,58.1,28.38,SSE,162,0.0,9.0,51,0.00,,,0.01,Wunderground v.1.15,2013-08-17 17:30:00,
2013-08-17 13:35:00,77.4,57.0,28.38,SSE,165,0.0,-999.0,50,-99.99,,,0.01,weatherlink.com 1.10,2013-08-17 17:35:00,
2013-08-17 13:50:00,77.8,56.0,28.37,ENE,71,0.0,-999.0,47,-99.99,,,0.01,weatherlink.com 1.10,2013-08-17 17:50:00,
2013-08-17 14:00:00,78.9,53.9,28.37,ESE,107,0.0,7.0,42,0.00,,,0.01,Wunderground v.1.15,2013-08-17 18:00:00,
2013-08-17 14:05:00,79.0,55.0,28.37,ESE,115,4.0,-999.0,44,-99.99,,,0.01,weatherlink.com 1.10,2013-08-17 18:05:00,
2013-08-17 14:20:00,78.3,55.0,28.37,ESE,123,0.0,-999.0,44,-99.99,,,0.01,weatherlink.com 1.10,2013-08-17 18:20:00,
2013-08-17 14:30:00,78.3,55.2,28.36,ESE,115,0.0,7.0,45,0.00,,,0.01,Wunderground v.1.15,2013-08-17 18:30:00,
2013-08-17 14:35:00,78.5,53.0,28.36,ESE,107,0.0,-999.0,41,-99.99,,,0.01,weatherlink.com 1.10,2013-08-17 18:35:00,
2013-08-17 14:50:00,79.1,56.0,28.36,SSE,153,0.0,-999.0,45,-99.99,,,0.01,weatherlink.com 1.10,2013-08-17 18:50:00,
2013-08-17 15:00:00,79.1,54.7,28.35,ESE,102,1.0,7.0,43,0.00,,,0.01,Wunderground v.1.15,2013-08-17 19:00:00,
2013-08-17 15:05:00,79.3,54.0,28.36,ESE,119,0.0,-999.0,41,-99.99,,,0.01,weatherlink.com 1.10,2013-08-17 19:05:00,
2013-08-17 15:20:00,78.5,53.0,28.35,SE,126,0.0,-999.0,41,-99.99,,,0.01,weatherlink.com 1.10,2013-08-17 19:20:00,
2013-08-17 15:30:00,78.9,52.5,28.35,SSE,157,2.0,2.0,40,0.00,,,0.01,Wunderground v.1.15,2013-08-17 19:30:00,
2013-08-17 15:35:00,78.7,53.0,28.35,ESE,110,0.0,-999.0,41,-99.99,,,0.01,weatherlink.com 1.10,2013-08-17 19:35:00,
2013-08-17 15:50:00,78.7,52.0,28.36,SE,146,0.0,-999.0,40,-99.99,,,0.01,weatherlink.com 1.10,2013-08-17 19:50:00,
2013-08-17 16:00:00,78.4,52.7,28.35,ESE,119,3.0,9.0,41,0.00,,,0.01,Wunderground v.1.15,2013-08-17 20:00:00,
2013-08-17 16:05:00,78.3,52.0,28.35,ESE,123,0.0,-999.0,40,-99.99,,,0.01,weatherlink.com 1.10,2013-08-17 20:05:00,
2013-08-17 16:20:00,78.7,53.0,28.36,SE,144,2.0,-999.0,41,-99.99,,,0.01,weatherlink.com 1.10,2013-08-17 20:20:00,
2013-08-17 16:30:00,78.8,54.4,28.35,ESE,115,0.0,9.0,43,0.00,,,0.01,Wunderground v.1.15,2013-08-17 20:30:00,
2013-08-17 16:35:00,78.8,56.0,28.35,SE,128,0.0,-999.0,45,-99.99,,,0.01,weatherlink.com 1.10,2013-08-17 20:35:00,
2013-08-17 16:50:00,78.3,55.0,28.35,SSE,157,0.0,-999.0,45,-99.99,,,0.01,weatherlink.com 1.10,2013-08-17 20:50:00,
2013-08-17 17:00:00,78.4,57.1,28.35,ESE,123,1.0,1.0,48,0.00,,,0.01,Wunderground v.1.15,2013-08-17 21:00:00,
2013-08-17 17:05:00,78.4,58.0,28.36,ESE,123,0.0,-999.0,50,-99.99,,,0.01,weatherlink.com 1.10,2013-08-17 21:05:00,
2013-08-17 17:20:00,78.1,59.0,28.35,SSE,165,0.0,-999.0,52,-99.99,,,0.01,weatherlink.com 1.10,2013-08-17 21:20:00,
2013-08-17 17:30:00,77.6,58.6,28.35,SSE,162,1.0,9.0,52,0.00,,,0.01,Wunderground v.1.15,2013-08-17 21:30:00,
2013-08-17 17:35:00,77.3,58.0,28.35,SE,146,0.0,-999.0,51,-99.99,,,0.01,weatherlink.com 1.10,2013-08-17 21:35:00,
2013-08-17 17:50:00,77.8,58.0,28.35,SE,129,0.0,-999.0,51,-99.99,,,0.01,weatherlink.com 1.10,2013-08-17 21:50:00,
2013-08-17 18:00:00,77.3,57.8,28.34,SE,136,0.0,7.0,51,0.00,,,0.01,Wunderground v.1.15,2013-08-17 22:00:00,
2013-08-17 18:05:00,76.9,58.0,28.34,ESE,121,0.0,-999.0,52,-99.99,,,0.01,weatherlink.com 1.10,2013-08-17 22:05:00,
2013-08-17 18:20:00,76.3,57.0,28.34,ESE,123,0.0,-999.0,52,-99.99,,,0.01,weatherlink.com 1.10,2013-08-17 22:20:00,
2013-08-17 18:30:00,76.5,57.6,28.34,ESE,117,0.0,7.0,52,0.00,,,0.01,Wunderground v.1.15,2013-08-17 22:30:00,
2013-08-17 18:35:00,76.7,58.0,28.34,ESE,117,0.0,-999.0,52,-99.99,,,0.01,weatherlink.com 1.10,2013-08-17 22:35:00,
2013-08-17 18:50:00,76.8,57.0,28.35,ESE,121,0.0,-999.0,51,-99.99,,,0.01,weatherlink.com 1.10,2013-08-17 22:50:00,
2013-08-17 19:00:00,76.6,57.1,28.34,ESE,117,0.0,7.0,51,0.00,,,0.01,Wunderground v.1.15,2013-08-17 23:00:00,
2013-08-17 19:06:00,76.9,61.0,28.34,ESE,115,0.0,-999.0,58,-99.99,,,0.01,weatherlink.com 1.10,2013-08-17 23:06:00,
2013-08-17 19:21:00,76.4,61.0,28.34,ESE,103,0.0,-999.0,60,-99.99,,,0.01,weatherlink.com 1.10,2013-08-17 23:21:00,
2013-08-17 19:30:00,75.6,61.7,28.34,ESE,102,0.0,7.0,62,0.00,,,0.01,Wunderground v.1.15,2013-08-17 23:30:00,
2013-08-17 19:35:00,75.3,62.0,28.34,East,99,0.0,-999.0,63,-99.99,,,0.01,weatherlink.com 1.10,2013-08-17 23:35:00,
2013-08-17 19:50:00,74.4,61.0,28.34,East,99,0.0,-999.0,63,-99.99,,,0.01,weatherlink.com 1.10,2013-08-17 23:50:00,
2013-08-17 20:00:00,73.4,61.3,28.34,East,99,0.0,0.0,66,0.00,,,0.01,Wunderground v.1.15,2013-08-18 00:00:00,
2013-08-17 20:05:00,72.8,62.0,28.34,NNE,25,0.0,-999.0,68,-99.99,,,0.01,weatherlink.com 1.10,2013-08-18 00:05:00,
2013-08-17 20:20:00,71.1,61.0,28.34,NNE,25,0.0,-999.0,71,-99.99,,,0.01,weatherlink.com 1.10,2013-08-18 00:20:00,
2013-08-17 20:30:00,70.1,60.7,28.34,NNE,25,0.0,0.0,72,0.00,,,0.01,Wunderground v.1.15,2013-08-18 00:30:00,
2013-08-17 20:36:00,69.4,60.0,28.34,NNE,25,0.0,-999.0,72,-99.99,,,0.01,weatherlink.com 1.10,2013-08-18 00:36:00,
2013-08-17 20:51:00,67.9,59.0,28.34,NNE,31,0.0,-999.0,74,-99.99,,,0.01,weatherlink.com 1.10,2013-08-18 00:51:00,
2013-08-17 21:05:00,66.9,59.0,28.34,NNE,30,0.0,-999.0,75,-99.99,,,0.01,weatherlink.com 1.10,2013-08-18 01:05:00,
2013-08-17 21:20:00,66.5,59.0,28.35,ENE,59,0.0,-999.0,76,-99.99,,,0.01,weatherlink.com 1.10,2013-08-18 01:20:00,
2013-08-17 21:30:00,66.2,58.0,28.35,ENE,63,0.0,0.0,75,0.00,,,0.01,Wunderground v.1.15,2013-08-18 01:30:00,
2013-08-17 21:36:00,66.1,58.0,28.35,ENE,63,0.0,-999.0,76,-99.99,,,0.01,weatherlink.com 1.10,2013-08-18 01:36:00,
2013-08-17 21:51:00,65.7,58.0,28.35,ENE,65,0.0,-999.0,77,-99.99,,,0.01,weatherlink.com 1.10,2013-08-18 01:51:00,
2013-08-17 22:00:00,65.3,57.9,28.35,ENE,67,0.0,0.0,77,0.00,,,0.01,Wunderground v.1.15,2013-08-18 02:00:00,
2013-08-17 22:05:00,65.2,58.0,28.35,East,84,0.0,-999.0,77,-99.99,,,0.01,weatherlink.com 1.10,2013-08-18 02:05:00,
2013-08-17 22:20:00,65.6,59.0,28.35,ESE,111,0.0,-999.0,78,-99.99,,,0.01,weatherlink.com 1.10,2013-08-18 02:20:00,
2013-08-17 22:30:00,65.8,58.7,28.34,ESE,111,0.0,0.0,78,0.00,,,0.01,Wunderground v.1.15,2013-08-18 02:30:00,
2013-08-17 22:36:00,65.9,59.0,28.34,ESE,119,0.0,-999.0,79,-99.99,,,0.01,weatherlink.com 1.10,2013-08-18 02:36:00,
2013-08-17 22:51:00,65.2,59.0,28.35,ESE,120,0.0,-999.0,79,-99.99,,,0.01,weatherlink.com 1.10,2013-08-18 02:51:00,
2013-08-17 23:00:00,64.0,58.1,28.35,ESE,121,0.0,0.0,81,0.00,,,0.01,Wunderground v.1.15,2013-08-18 03:00:00,
2013-08-17 23:06:00,63.3,58.0,28.35,ESE,121,0.0,-999.0,82,-99.99,,,0.01,weatherlink.com 1.10,2013-08-18 03:06:00,
2013-08-17 23:21:00,62.0,57.0,28.35,ESE,121,0.0,-999.0,84,-99.99,,,0.01,weatherlink.com 1.10,2013-08-18 03:21:00,
2013-08-17 23:30:00,61.7,57.1,28.35,ESE,121,0.0,0.0,85,0.00,,,0.01,Wunderground v.1.15,2013-08-18 03:30:00,
2013-08-17 23:36:00,61.5,57.0,28.35,ESE,121,0.0,-999.0,85,-99.99,,,0.01,weatherlink.com 1.10,2013-08-18 03:36:00,
2013-08-17 23:51:00,61.1,57.0,28.35,ESE,121,0.0,-999.0,86,-99.99,,,0.01,weatherlink.com 1.10,2013-08-18 03:51:00,